Location: Brivio
(45.7333°N, 9.4500°E)
Time: 16:11:26
(UTC+00:00)

Daily predictions for brighter satellites

Satellite Brightness Start Highest point End
(mag) Time Altitude Azimuth Time Altitude Azimuth Time Altitude Azimuth
Unknown 4.3 16:54:49 10° W 16:58:52 52° NNW 17:02:56 10° NE
Unknown 4.5 16:55:30 10° W 16:59:22 42° NNW 17:03:15 10° NE
Unknown 4.3 16:56:31 10° W 17:00:34 51° NNW 17:04:37 10° NE
H-2A R/B 3.0 16:58:25 10° S 17:02:18 79° WSW 17:06:15 10° NNW
SL-4 R/B 3.1 17:00:00 10° WNW 17:03:43 41° SW 17:07:11 10° SSE
Cosmos 1726 Rocket 3.6 16:59:43 10° S 17:04:00 56° E 17:08:18 10° NNE
Cosmos 2082 Rocket 3.5 17:00:01 10° N 17:04:17 21° NE 17:08:30 10° E
Cosmos 2228 3.0 17:01:33 10° S 17:05:52 62° E 17:10:10 10° NNE
Unknown 4.4 17:03:09 10° W 17:07:10 47° NNW 17:11:12 10° NE
Unknown 4.4 17:04:54 10° W 17:08:54 47° NNW 17:12:56 10° NE
YAOGAN 6 3.2 17:05:56 10° SE 17:09:19 36° ENE 17:12:41 10° N
Gbstr 26 Del rocket 4.3 17:04:33 10° WNW 17:10:14 55° NNE 17:17:13 10° E
Unknown 4.4 17:06:33 10° W 17:10:33 46° NNW 17:14:34 10° NE
Shenzhou-11 Module 2.5 17:07:56 10° WSW 17:10:36 44° S 17:13:13 10° ESE
Envisat 3.0 17:05:46 10° SSE 17:10:47 66° ENE 17:15:51 10° N
Cosmos 1703 3.9 17:07:59 10° N 17:11:37 34° ENE 17:15:12 10° SE
ASTEX 1 3.6 17:07:22 10° NNE 17:12:12 49° E 17:17:01 10° SSE
Unknown 4.4 17:08:13 10° W 17:12:12 45° NNW 17:16:13 10° NE
COSMOS 2406 3.4 17:06:40 10° NNW 17:12:22 56° ENE 17:18:00 10° SE
Unknown 4.5 17:09:54 10° W 17:13:53 44° NNW 17:17:53 10° NE
Cosmos 2084 4.0 17:10:20 10° SW 17:14:50 64° NW 17:19:17 10° NE
Cosmos 921 Rocket 3.1 17:10:41 10° S 17:15:09 68° ESE 17:19:36 10° NNE
EO 1 Delta rocket 4.5 17:11:28 10° SE 17:15:36 34° ENE 17:20:02 10° N
Cosmos 292 Rocket 4.0 17:13:17 10° S 17:17:48 46° ESE 17:22:21 10° NNE
Unknown 4.5 17:16:28 10° NW 17:19:26 27° NNE 17:21:58 13° ENE
Cosmos 1844 Rocket 3.1 17:15:56 10° SW 17:21:34 67° WNW 17:27:12 10° NNE
Cosmos 2058 Rocket 3.1 17:17:37 10° S 17:21:53 56° E 17:26:10 10° NNE
Cosmos 1356 3.6 17:19:47 10° S 17:23:05 47° E 17:26:25 10° NNE
Cosmos 1953 3.1 17:20:33 10° SSW 17:24:33 57° WNW 17:28:35 10° N
Okean-O 3.6 17:25:32 10° S 17:29:50 51° W 17:34:11 10° NNW
FengYun 1-2 T 4.2 17:26:34 10° SSE 17:32:13 81° ENE 17:37:51 10° NNW
USA 116 3.6 17:29:52 10° NNE 17:32:54 40° E 17:36:06 10° S
Meteor 1-11 4.3 17:27:28 10° N 17:33:10 59° ENE 17:38:53 10° SSE
Falcon 9 debris 4.3 17:33:07 10° NW 17:36:13 30° NNE 17:38:02 18° ENE
Meteor 1-16 Rocket 4.1 17:30:45 10° S 17:36:19 88° E 17:41:45 10° NNE
BREEZE-M DEB (TANK) 3.8 17:32:16 10° WNW 17:36:35 76° NNE 17:47:33 12° ESE
CZ-4C R/B 4.5 17:30:07 10° NW 17:36:53 39° WSW 17:44:20 10° S
COSMO-SKYMED 1 2.5 17:34:07 10° NNE 17:38:30 86° ESE 17:42:50 10° SSW
Lacrosse 5 2.6 17:33:50 10° NW 17:38:33 38° NNE 17:41:43 19° E
Cosmos 1605 Rocket 4.0 17:33:28 10° N 17:39:37 61° ENE 17:45:39 10° SSE
USA 238 DEB 4.3 17:34:27 10° S 17:40:19 34° ESE 17:46:22 10° NE
USA 238 4.3 17:34:34 10° S 17:40:26 34° ESE 17:46:25 10° NE
Cosmos 1908 3.3 17:36:52 10° S 17:40:41 55° E 17:44:30 10° NNE
Cosmos 2278 Rocket 2.4 17:40:03 10° S 17:45:30 51° ESE 17:51:00 10° NE
ATLAS 5 CENTAUR R/B 3.5 17:43:15 10° W 17:47:03 27° NW 17:51:16 10° NNE
Cosmos 1934 Rocket 4.2 17:42:06 10° N 17:48:26 80° W 17:54:48 10° S
Cosmos 1727 Rocket 4.2 17:43:13 10° SSE 17:49:00 44° E 17:54:49 10° NNE
Unknown 4.3 17:46:10 10° NW 17:49:20 31° NNE 17:50:40 24° ENE
Ariane Rocket 3.2 17:48:34 10° SE 17:53:27 48° ENE 17:58:21 10° N
Lacrosse 5 rocket 3.7 17:50:42 10° WNW 17:53:35 20° SW 17:56:34 10° S
Cosmos 1939 Rocket 2.9 17:54:31 10° SSE 17:58:24 55° ENE 18:02:22 10° N
Abrixas rocket 2.2 17:57:20 10° SW 18:00:20 52° SSE 18:00:46 46° ESE
Unknown 4.2 18:00:01 10° WNW 18:02:24 29° SW 18:03:32 21° S
Cosmos 1461 3.0 17:58:55 10° NNW 18:02:56 53° NE 18:04:27 34° ESE
Cosmos 1242 Rocket 4.1 18:00:37 10° NNW 18:04:05 39° W 18:07:31 10° SSW
NOSS 3-2 (A) 3.8 18:00:11 10° S 18:05:25 38° ESE 18:08:34 23° ENE
CSL-04 Rocket 4.0 17:59:57 10° S 18:05:29 70° WSW 18:10:59 10° NNW
Cosmos 1726 3.4 18:04:43 10° SSW 18:08:12 42° WNW 18:11:42 10° N
Cosmos 2084 Rocket 4.3 18:06:26 10° NNW 18:10:27 33° NE 18:11:04 31° ENE
Unknown 2.9 18:08:45 10° WNW 18:11:52 74° SSW 18:12:18 60° SSE
HJ-1C 3.6 18:14:01 51° NE 18:14:01 51° NE 18:17:01 10° N
Cosmos 1777 Rocket 4.3 18:09:26 10° NNW 18:14:39 69° WSW 18:19:47 10° S
NOAA 11 4.1 18:10:16 10° SSE 18:15:43 87° ENE 18:21:12 10° NNW
SPOT 3 Rocket 4.2 18:17:55 33° ENE 18:18:05 33° ENE 18:22:41 10° N
ARGOS 4.1 18:19:44 29° ENE 18:19:44 29° ENE 18:24:04 10° N
Cosmos 1812 Rocket 3.4 18:15:36 10° S 18:19:58 69° E 18:24:26 10° NNE
Cosmos 2100 Rocket 4.0 18:15:50 10° N 18:21:54 53° ENE 18:25:38 23° SE
CZ-4 R/B 3.4 18:19:48 10° SSW 18:23:30 30° W 18:27:16 10° NNW
SJ-11-01 4.4 18:24:11 46° E 18:24:40 49° ENE 18:29:12 10° N
Cosmos 1833 Rocket 2.6 18:19:07 10° NNW 18:24:46 86° WSW 18:28:56 19° SSE
Cosmos 1076 Rocket 3.4 18:21:28 10° N 18:25:50 68° E 18:27:01 45° SE
BREEZE-M DEB (TANK) 2.8 18:17:13 10° SW 18:27:08 67° SSE 18:28:00 51° E
CZ-2D R/B 3.8 18:23:56 10° S 18:27:43 59° W 18:31:34 10° NNW
NOSS 3-2 (C) 3.9 18:23:57 10° S 18:28:35 36° SE 18:28:35 36° SE
YAOGAN 1 4.2 18:25:30 10° SSW 18:29:29 35° W 18:33:29 10° NNW
H-2A R/B 2.7 18:35:44 39° NE 18:35:44 39° NE 18:40:16 10° N
Cosmos 2016 Rocket 4.1 18:37:18 10° N 18:43:24 50° ENE 18:43:50 49° E
BREEZE-M DEB (TANK) 3.6 18:40:08 10° WSW 18:42:39 37° WSW 18:42:39 37° WSW
Meteor 2-1 Rocket 4.1 18:38:30 10° S 18:43:54 62° E 18:49:23 10° NNE
ADEOS Rocket 3.6 18:39:33 10° NNE 18:47:02 51° E 18:53:58 10° S
Cosmos 2082 Rocket 2.2 18:43:20 10° NNW 18:49:05 81° WSW 18:51:05 42° SSE
Cosmos 1898 Rocket 3.8 18:52:18 10° NNW 18:56:42 53° NNE 18:56:42 53° NNE
Gbstr 26 Del rocket 4.2 18:51:27 10° WNW 18:57:50 75° SSW 18:59:47 51° SE
Cosmos 2058 3.7 18:58:25 10° NNW 19:01:38 48° NW 19:01:38 48° NW
Cosmos 2061 Rocket 3.8 18:57:28 10° N 19:03:44 74° E 19:04:09 71° ESE
ATLAS 3B R/B 3.7 18:58:01 10° S 19:01:17 28° S 19:01:17 28° S
CZ-2C R/B 4.1 19:12:02 39° NNE 19:12:02 39° NNE 19:15:54 10° N
CENTAUR R/B 4.0 19:09:29 10° SSW 19:11:09 20° S 19:11:09 20° S
In-Cosmos 22 Rocket 4.2 19:10:07 10° NNW 19:15:29 71° W 19:15:44 70° WSW
Cosmos 1459 Rocket 4.3 19:14:06 10° NNW 19:20:14 64° W 19:23:02 33° SSW
SJ 16-02 3.4 19:15:59 10° NNW 19:17:24 20° N 19:17:24 20° N
Lacrosse 5 2.5 19:16:47 10° NW 19:20:55 52° W 19:20:55 52° W
Resurs 01 Rocket 4.2 19:32:44 13° N 19:32:44 13° N 19:33:11 10° N
Cosmos 2278 Rocket 3.9 19:24:56 10° WSW 19:29:51 30° NW 19:34:49 10° N
USA 238 DEB 4.1 19:24:18 10° SW 19:30:56 59° NW 19:33:52 34° NNE
USA 238 4.1 19:24:25 10° SW 19:31:02 59° NW 19:33:55 35° NNE
ATLAS 5 CENTAUR R/B 4.5 19:31:41 10° NNW 19:33:31 12° N 19:34:49 11° N
NOSS 3-2 (A) 4.2 19:50:26 10° WSW 19:56:02 47° NW 19:56:02 47° NW
H-2A R/B 4.0 20:16:23 26° WNW 20:16:23 26° WNW 20:19:29 10° NNW
